sat.trackr.live / text

‹ back to catalog

STARLINK-37163

NORAD 68264 · 2026-055C

PAYLOAD ACTIVE UNKNOWN

§ Identity

Operator
Country
US
Launch date
2026-03-19
Launch site
AFETR
Launch vehicle
Mass (kg)
RCS (m²)

Purposes: comms

External: N2YO · Heavens-Above · Gunter

§ Orbital elements

Epoch: 2026-09-20T04:24:15.354720Z

Period
93.85 min
Inclination
53.1573°
Eccentricity
0.0001190
Mean motion
15.34381486 rev/d
Perigee alt
461.9 km
Apogee alt
463.6 km
Semi-major
6,840.9 km
B*
3.1077e-4
RAAN
131.2660°
Arg perigee
79.7909°
Mean anomaly
280.3227°
Rev number
2,977

§ Raw data

STARLINK-371631 68264U 26055C   26263.18351105  .00010132  00000+0  31077-3 0  99942 68264  53.1573 131.2660 0001190  79.7909 280.3227 15.34381486 29775

JSON: /api/v1/satellites/68264 · /tle

For live sub-satellite position, see the globe view (requires WebGL).

§ Visibility from observer

Set your observer location to see the next 7 days of passes ≥ 10°. The values pass through the URL so the page stays shareable.

No JS? Fill the form by hand. The geolocation button needs JavaScript.